CVMN11 YSHW-YSHW

Flight info

Callsign CVMN11
Flight time 0h 13m
Altitude 5000
Route DCT JIBN DCT SLL DCT RAKSO DCT
Aircraft H47/M-SDFGRY/LB1

Departure

Time 2026-05-05 12:00
Airport Holsworthy (Military) Airport (YSHW)

Arrival

Time 2026-05-05 12:13
Airport Holsworthy (Military) Airport (YSHW)
Time Latitude Longitude Altitude Speed Heading
2026-05-05 11:52 -33.99511 150.95321 246 ft 0 kts 123°
2026-05-05 11:59 -33.99542 150.95335 260 ft 8 kts 127°
2026-05-05 11:59 -33.99577 150.95383 247 ft 7 kts 129°
2026-05-05 11:59 -33.99710 150.95602 512 ft 77 kts 131°
2026-05-05 12:00 -34.00187 150.96383 1252 ft 138 kts 127°
2026-05-05 12:00 -34.00694 150.97395 1624 ft 142 kts 111°
2026-05-05 12:00 -34.01277 150.98179 2410 ft 101 kts 122°
2026-05-05 12:00 -34.01746 150.98643 2635 ft 90 kts 121°
2026-05-05 12:01 -34.02316 150.99248 2123 ft 136 kts 127°
2026-05-05 12:01 -34.02983 150.99941 2521 ft 114 kts 123°
2026-05-05 12:01 -34.03540 151.00607 2587 ft 121 kts 128°
2026-05-05 12:01 -34.03895 151.01525 2660 ft 121 kts 118°
2026-05-05 12:02 -34.04230 151.02442 2575 ft 119 kts 118°
2026-05-05 12:02 -34.04604 151.03316 2913 ft 117 kts 121°
2026-05-05 12:02 -34.05104 151.04130 2678 ft 143 kts 126°
2026-05-05 12:02 -34.05738 151.05100 3005 ft 136 kts 124°
2026-05-05 12:03 -34.06266 151.05807 3603 ft 98 kts 125°
2026-05-05 12:03 -34.06812 151.06435 3516 ft 120 kts 127°
2026-05-05 12:03 -34.07489 151.07230 3547 ft 135 kts 126°
2026-05-05 12:03 -34.08176 151.08000 3542 ft 139 kts 126°
2026-05-05 12:04 -34.08895 151.08781 3544 ft 139 kts 126°
2026-05-05 12:04 -34.09624 151.09547 3549 ft 138 kts 126°
2026-05-05 12:04 -34.10376 151.10279 3526 ft 142 kts 129°
2026-05-05 12:04 -34.11340 151.10599 3556 ft 145 kts 161°
2026-05-05 12:05 -34.12323 151.10187 3563 ft 154 kts 198°
2026-05-05 12:05 -34.13077 151.09294 3545 ft 153 kts 211°
2026-05-05 12:05 -34.13694 151.08261 3548 ft 151 kts 217°
2026-05-05 12:05 -34.14166 151.07359 3546 ft 150 kts 218°
2026-05-05 12:06 -34.14692 151.06279 3549 ft 149 kts 218°
2026-05-05 12:06 -34.15209 151.05192 3550 ft 149 kts 218°
2026-05-05 12:06 -34.15724 151.04108 3552 ft 146 kts 219°
2026-05-05 12:06 -34.16415 151.03204 3545 ft 147 kts 198°
2026-05-05 12:07 -34.17188 151.02423 3548 ft 145 kts 194°
2026-05-05 12:07 -34.17988 151.01685 3555 ft 144 kts 192°
2026-05-05 12:07 -34.18797 151.00973 3570 ft 141 kts 212°
2026-05-05 12:07 -34.19455 151.00140 3687 ft 142 kts 242°
2026-05-05 12:08 -34.19421 150.98951 3652 ft 150 kts 287°
2026-05-05 12:08 -34.18876 150.97899 3807 ft 142 kts 312°
2026-05-05 12:08 -34.18130 150.97243 4450 ft 131 kts 333°
2026-05-05 12:08 -34.17218 150.96928 4730 ft 143 kts 351°
2026-05-05 12:09 -34.16207 150.96736 4689 ft 150 kts 354°
2026-05-05 12:09 -34.15170 150.96544 4675 ft 150 kts 353°
2026-05-05 12:09 -34.14150 150.96264 4622 ft 152 kts 348°
2026-05-05 12:09 -34.13125 150.95897 4486 ft 156 kts 344°
2026-05-05 12:10 -34.12086 150.95457 4315 ft 160 kts 342°
2026-05-05 12:10 -34.11005 150.95034 4041 ft 167 kts 348°
2026-05-05 12:10 -34.09890 150.94639 3793 ft 167 kts 342°
2026-05-05 12:10 -34.08800 150.94180 3614 ft 164 kts 345°
2026-05-05 12:11 -34.07667 150.93992 3412 ft 165 kts
2026-05-05 12:11 -34.06556 150.94076 3329 ft 159 kts
2026-05-05 12:11 -34.05471 150.94171 2713 ft 159 kts 10°
2026-05-05 12:11 -34.04341 150.94367 1813 ft 158 kts 10°
2026-05-05 12:12 -34.03352 150.94478 2014 ft 139 kts
2026-05-05 12:12 -34.02353 150.94680 1487 ft 148 kts 18°
2026-05-05 12:12 -34.01445 150.95210 1550 ft 142 kts 26°
2026-05-05 12:12 -34.00630 150.95698 843 ft 115 kts 25°
2026-05-05 12:13 -34.00041 150.95833 507 ft 67 kts 350°
2026-05-05 12:13 -33.99707 150.95605 385 ft 48 kts 327°
2026-05-05 12:13 -33.99587 150.95460 260 ft 8 kts 292°
2026-05-05 12:13 -33.99572 150.95430 246 ft 1 kts 304°
2026-05-05 12:14 -33.99571 150.95430 246 ft 0 kts 302°